Silver Bay, MN

2:39 PM CDT on May 25, 2018 (GMT -0500)
Silver Bay Municipal

Weather History for KBFW - May, 2013

Change the Weather History Date:

Friday, May 17, 2013

  Actual Average Record
Temperature  
Mean Temperature 48 °F -  
Max Temperature 55 °F 58 °F 75 °F (2001)
Min Temperature 42 °F 34 °F 23 °F (2014)
Degree Days  
Heating Degree Days 16    
Moisture  
Dew Point 30 °F    
Average Humidity 50    
Maximum Humidity 61    
Minimum Humidity 36    
Precipitation  
Precipitation 0.00 in - - ()
Sea Level Pressure  
Sea Level Pressure 30.09 in    
Wind  
Wind Speed 7 mph (ENE)    
Max Wind Speed 18 mph    
Max Gust Speed 25 mph    
Visibility 10 miles    
Events      
Averages and records for this station are not official NWS values.
T = Trace of Precipitation, MM = Missing Value Source: NWS Daily Summary

Daily Weather History Graph

Daily Weather History Graph

Search for Another Location

Airport or City:

Astronomy

May. 17, 2013 Rise Set
Actual Time 5:26 AM CDT 8:38 PM CDT
Civil Twilight 4:50 AM CDT 9:14 PM CDT
Nautical Twilight 4:02 AM CDT 10:02 PM CDT
Astronomical Twilight 3:03 AM CDT 11:02 PM CDT
Moon 12:11 PM CDT (5/17) 1:20 AM CDT (5/17)
Length of Visible Light 16h 24m
Length of Day
15h 11m
Waxing Crescent, 45% of the Moon is Illuminated
May 17
Waxing Crescent
May 17
First Quarter
May 24
Full
May 31
Last Quarter
Jun 8
New

Hourly Weather History & Observations

Time (CDT) Temp. Windchill Dew Point Humidity Pressure Visibility Wind Dir Wind Speed Gust Speed Precip Events Conditions
12:13 AM 42.8 °F - 30.2 °F 61% 30.05 in 10.0 mi Calm Calm - N/A   Clear
12:33 AM 42.8 °F - 30.2 °F 61% 30.05 in 10.0 mi Calm Calm - N/A   Clear
12:53 AM 42.8 °F - 30.2 °F 61% 30.05 in 10.0 mi Calm Calm - N/A   Scattered Clouds
1:13 AM 44.6 °F 42.2 °F 30.2 °F 57% 30.05 in 10.0 mi NE 4.6 mph - N/A   Mostly Cloudy
1:33 AM 44.6 °F - 30.2 °F 57% 30.06 in 10.0 mi Calm Calm - N/A   Overcast
1:53 AM 44.6 °F - 30.2 °F 57% 30.07 in 10.0 mi Calm Calm - N/A   Overcast
2:13 AM 44.6 °F 42.2 °F 30.2 °F 57% 30.08 in 10.0 mi NE 4.6 mph - N/A   Overcast
2:33 AM 46.4 °F 42.4 °F 30.2 °F 53% 30.08 in 10.0 mi ENE 8.1 mph - N/A   Overcast
2:53 AM 46.4 °F 42.4 °F 30.2 °F 53% 30.09 in 10.0 mi ENE 8.1 mph - N/A   Overcast
3:13 AM 46.4 °F 43.5 °F 30.2 °F 53% 30.09 in 10.0 mi NE 5.8 mph - N/A   Scattered Clouds
3:33 AM 46.4 °F 42.9 °F 30.2 °F 53% 30.09 in 10.0 mi NE 6.9 mph - N/A   Scattered Clouds
3:53 AM 46.4 °F 43.5 °F 30.2 °F 53% 30.09 in 10.0 mi NE 5.8 mph - N/A   Mostly Cloudy
4:13 AM 46.4 °F 42.9 °F 30.2 °F 53% 30.08 in 10.0 mi NE 6.9 mph - N/A   Overcast
4:33 AM 46.4 °F 42.4 °F 30.2 °F 53% 30.07 in 10.0 mi NE 8.1 mph - N/A   Scattered Clouds
4:53 AM 46.4 °F 42.9 °F 30.2 °F 53% 30.07 in 10.0 mi NE 6.9 mph - N/A   Scattered Clouds
5:13 AM 46.4 °F 42.9 °F 30.2 °F 53% 30.07 in 10.0 mi NE 6.9 mph - N/A   Clear
5:33 AM 46.4 °F 42.4 °F 30.2 °F 53% 30.07 in 10.0 mi ENE 8.1 mph - N/A   Scattered Clouds
5:53 AM 44.6 °F 40.7 °F 30.2 °F 57% 30.08 in 10.0 mi ENE 6.9 mph - N/A   Light Drizzle
6:13 AM 44.6 °F 40.2 °F 30.2 °F 57% 30.09 in 10.0 mi ENE 8.1 mph - N/A   Scattered Clouds
6:33 AM 44.6 °F 39.2 °F 30.2 °F 57% 30.11 in 10.0 mi ENE 10.4 mph 16.1 mph N/A   Scattered Clouds
7:13 AM 42.8 °F 37.5 °F 30.2 °F 61% 30.14 in 10.0 mi ENE 9.2 mph - N/A   Mostly Cloudy
7:33 AM 42.8 °F 36.2 °F 30.2 °F 61% 30.14 in 10.0 mi ENE 12.7 mph 17.3 mph N/A   Mostly Cloudy
7:53 AM 42.8 °F 38.0 °F 30.2 °F 61% 30.14 in 10.0 mi ENE 8.1 mph 18.4 mph N/A   Mostly Cloudy
8:13 AM - - - N/A% - 10.0 mi East 10.4 mph - N/A   Mostly Cloudy
8:33 AM 42.8 °F 36.6 °F 30.2 °F 61% 30.14 in 10.0 mi ENE 11.5 mph 18.4 mph N/A   Mostly Cloudy
8:53 AM 42.8 °F 38.0 °F 30.2 °F 61% 30.14 in 10.0 mi NE 8.1 mph 16.1 mph N/A   Mostly Cloudy
9:13 AM 42.8 °F 38.0 °F 30.2 °F 61% 30.14 in 10.0 mi ENE 8.1 mph - N/A   Overcast
9:33 AM 44.6 °F 39.7 °F 30.2 °F 57% 30.14 in - NE 9.2 mph 17.3 mph N/A   Overcast
9:53 AM 44.6 °F 38.8 °F 30.2 °F 57% 30.14 in 10.0 mi ENE 11.5 mph 18.4 mph N/A   Mostly Cloudy
10:13 AM 46.4 °F 41.5 °F 30.2 °F 53% 30.13 in 10.0 mi NE 10.4 mph 17.3 mph N/A   Mostly Cloudy
10:33 AM 48.2 °F - 30.2 °F 50% 30.13 in 10.0 mi ENE 13.8 mph 17.3 mph N/A   Scattered Clouds
10:53 AM 48.2 °F - 30.2 °F 50% 30.13 in 10.0 mi ENE 12.7 mph 18.4 mph N/A   Scattered Clouds
11:13 AM 48.2 °F - 30.2 °F 50% 30.12 in 10.0 mi NE 15.0 mph 20.7 mph N/A   Clear
11:33 AM 51.8 °F - 30.2 °F 44% 30.12 in 10.0 mi ENE 12.7 mph 21.9 mph N/A   Clear
11:53 AM 51.8 °F - 30.2 °F 44% 30.12 in 10.0 mi NE 11.5 mph 19.6 mph N/A   Clear
12:13 PM 50.0 °F - 30.2 °F 47% 30.11 in 10.0 mi ENE 12.7 mph 18.4 mph N/A   Clear
12:33 PM 51.8 °F - 30.2 °F 44% 30.11 in 10.0 mi East 10.4 mph - N/A   Clear
12:53 PM 50.0 °F - 30.2 °F 47% 30.11 in 10.0 mi ENE 11.5 mph 17.3 mph N/A   Clear
1:13 PM 50.0 °F - 30.2 °F 47% 30.11 in 10.0 mi East 13.8 mph 19.6 mph N/A   Clear
1:33 PM 48.2 °F - 30.2 °F 50% 30.11 in 10.0 mi East 12.7 mph 17.3 mph N/A   Clear
1:53 PM 48.2 °F - 30.2 °F 50% 30.12 in 10.0 mi ENE 11.5 mph 20.7 mph N/A   Clear
2:13 PM 48.2 °F - 30.2 °F 50% 30.11 in 10.0 mi ENE 10.4 mph 17.3 mph N/A   Clear
2:33 PM 50.0 °F - 30.2 °F 47% 30.10 in 10.0 mi NE 10.4 mph 17.3 mph N/A   Scattered Clouds
2:53 PM 51.8 °F - 30.2 °F 44% 30.11 in 10.0 mi ENE 12.7 mph 21.9 mph N/A   Clear
3:13 PM 53.6 °F - 30.2 °F 41% 30.10 in 10.0 mi East 13.8 mph 19.6 mph N/A   Clear
3:33 PM 53.6 °F - 30.2 °F 41% 30.09 in 10.0 mi ENE 11.5 mph 20.7 mph N/A   Clear
3:53 PM 55.4 °F - 28.4 °F 36% 30.09 in 10.0 mi ENE 16.1 mph 24.2 mph N/A   Clear
4:13 PM 55.4 °F - 28.4 °F 36% 30.07 in 10.0 mi ENE 17.3 mph 25.3 mph N/A   Clear
4:33 PM 55.4 °F - 28.4 °F 36% 30.07 in 10.0 mi ENE 18.4 mph 24.2 mph N/A   Clear
4:53 PM 55.4 °F - 28.4 °F 36% 30.08 in 10.0 mi ENE 15.0 mph 24.2 mph N/A   Clear
5:13 PM 55.4 °F - 30.2 °F 38% 30.07 in 10.0 mi ENE 8.1 mph - N/A   Clear
5:33 PM 53.6 °F - 28.4 °F 38% 30.08 in 10.0 mi ENE 13.8 mph 20.7 mph N/A   Clear
5:53 PM 53.6 °F - 30.2 °F 41% 30.08 in 10.0 mi ENE 12.7 mph 19.6 mph N/A   Clear
6:13 PM 53.6 °F - 30.2 °F 41% 30.07 in 10.0 mi ENE 11.5 mph 19.6 mph N/A   Clear
6:33 PM 51.8 °F - 28.4 °F 41% 30.08 in 10.0 mi ENE 15.0 mph 21.9 mph N/A   Clear
6:53 PM 51.8 °F - 28.4 °F 41% 30.08 in 10.0 mi ENE 11.5 mph 21.9 mph N/A   Clear
7:13 PM 51.8 °F - 28.4 °F 41% 30.09 in 10.0 mi ENE 9.2 mph 16.1 mph N/A   Clear
7:33 PM 51.8 °F - 28.4 °F 41% 30.09 in 10.0 mi ENE 11.5 mph 18.4 mph N/A   Clear
7:53 PM 50.0 °F - 28.4 °F 43% 30.08 in 10.0 mi ENE 13.8 mph 19.6 mph N/A   Clear
8:14 PM 50.0 °F - 28.4 °F 43% 30.08 in 10.0 mi NE 11.5 mph 18.4 mph N/A   Clear
8:33 PM 48.2 °F - 28.4 °F 46% 30.08 in 10.0 mi ENE 9.2 mph 16.1 mph N/A   Clear
8:53 PM 48.2 °F - 28.4 °F 46% 30.08 in 10.0 mi ENE 6.9 mph 16.1 mph N/A   Clear
9:13 PM 48.2 °F - 28.4 °F 46% 30.08 in 10.0 mi ENE 9.2 mph 19.6 mph N/A   Clear
9:33 PM 48.2 °F - 30.2 °F 50% 30.07 in 10.0 mi ENE 11.5 mph 16.1 mph N/A   Clear
9:53 PM 48.2 °F - 30.2 °F 50% 30.07 in 10.0 mi ENE 11.5 mph 16.1 mph N/A   Clear
10:13 PM 46.4 °F 41.1 °F 30.2 °F 53% 30.07 in 10.0 mi ENE 11.5 mph - N/A   Clear
10:33 PM 48.2 °F - 30.2 °F 50% 30.06 in 10.0 mi East 11.5 mph 17.3 mph N/A   Mostly Cloudy
10:53 PM 46.4 °F 41.1 °F 30.2 °F 53% 30.07 in 10.0 mi ENE 11.5 mph 16.1 mph N/A   Overcast
11:13 PM 48.2 °F - 30.2 °F 50% 30.06 in 10.0 mi ENE 11.5 mph 17.3 mph N/A   Overcast
11:33 PM 46.4 °F 40.4 °F 30.2 °F 53% 30.05 in 10.0 mi ENE 13.8 mph 20.7 mph N/A   Overcast
11:53 PM 46.4 °F 41.5 °F 30.2 °F 53% 30.05 in 10.0 mi ENE 10.4 mph 17.3 mph N/A   Scattered Clouds